Nampa, ID

4:30 PM MST on February 27, 2017 (GMT -0700)
Nampa

Weather History for KMAN - November, 2012

Change the Weather History Date:

Saturday, November 17, 2012

  Actual Average (KBOI) Record (KBOI)
Temperature  
Mean Temperature 48 °F -  
Max Temperature 57 °F 47 °F 67 °F (1908)
Min Temperature 39 °F 31 °F 6 °F (2014)
Degree Days  
Heating Degree Days 17    
Moisture  
Dew Point 39 °F    
Average Humidity 73    
Maximum Humidity 100    
Minimum Humidity 47    
Precipitation  
Precipitation 0.03 in - - ()
Sea Level Pressure  
Sea Level Pressure 29.84 in    
Wind  
Wind Speed 9 mph (SSE)    
Max Wind Speed 18 mph    
Max Gust Speed 29 mph    
Visibility 10 miles    
Events      
Averages and records for this station are not official NWS values.
T = Trace of Precipitation, MM = Missing Value Source: NWS Daily Summary

Daily Weather History Graph

Daily Weather History Graph

Search for Another Location

Airport or City:

Trip Planner

Search our weather history database for the weather conditions in past years. The results will help you decide how hot, cold, wet, or windy it might be!

Date:

Astronomy

Nov. 17, 2012 Rise Set
Actual Time 7:43 AM MST 5:18 PM MST
Civil Twilight 7:12 AM MST 5:49 PM MST
Nautical Twilight 6:37 AM MST 6:24 PM MST
Astronomical Twilight 6:03 AM MST 6:58 PM MST
Moon 11:31 AM MST (11/17) 9:34 PM MST (11/17)
Length of Visible Light 10h 37m
Length of Day
9h 35m
Waxing Crescent, 21% of the Moon is Illuminated
Nov 17
Waxing Crescent
Nov 20
First Quarter
Nov 28
Full
Dec 6
Last Quarter
Dec 13
New

Hourly Weather History & Observations

Time (MST) Temp. Windchill Dew Point Humidity Pressure Visibility Wind Dir Wind Speed Gust Speed Precip Events Conditions
12:15 AM 46.4 °F 42.4 °F 35.6 °F 66% 29.98 in 10.0 mi SE 8.1 mph - N/A   Mostly Cloudy
12:35 AM 44.6 °F 41.4 °F 35.6 °F 71% 29.98 in 10.0 mi SE 5.8 mph - N/A   Scattered Clouds
12:55 AM 44.6 °F 40.2 °F 35.6 °F 71% 29.98 in 10.0 mi SSE 8.1 mph - N/A   Mostly Cloudy
1:15 AM 44.6 °F 40.2 °F 35.6 °F 71% 29.97 in 10.0 mi South 8.1 mph - N/A   Mostly Cloudy
1:35 AM 42.8 °F 39.3 °F 35.6 °F 76% 29.98 in 10.0 mi South 5.8 mph - N/A   Scattered Clouds
1:55 AM 41.0 °F 35.8 °F 35.6 °F 81% 29.97 in 10.0 mi SSE 8.1 mph - N/A   Scattered Clouds
2:15 AM 41.0 °F 35.8 °F 35.6 °F 81% 29.97 in 10.0 mi SSE 8.1 mph - N/A   Clear
2:35 AM 41.0 °F 35.2 °F 35.6 °F 81% 29.97 in 10.0 mi SSE 9.2 mph - N/A   Scattered Clouds
2:55 AM 44.6 °F 39.2 °F 33.8 °F 66% 29.96 in 10.0 mi SSE 10.4 mph 18.4 mph N/A   Mostly Cloudy
3:15 AM 44.6 °F 38.1 °F 33.8 °F 66% 29.96 in 10.0 mi SSE 13.8 mph - N/A   Mostly Cloudy
3:35 AM 41.0 °F 36.4 °F 33.8 °F 76% 29.96 in 10.0 mi SSE 6.9 mph - N/A   Mostly Cloudy
3:55 AM 39.2 °F 35.9 °F 35.6 °F 87% 29.95 in 10.0 mi SE 4.6 mph - N/A   Scattered Clouds
4:15 AM 39.2 °F 35.9 °F 35.6 °F 87% 29.95 in 10.0 mi SSE 4.6 mph - N/A   Mostly Cloudy
4:35 AM 41.0 °F 38.0 °F 35.6 °F 81% 29.95 in 10.0 mi South 4.6 mph - N/A   Overcast
4:55 AM 41.0 °F 38.0 °F 35.6 °F 81% 29.94 in 10.0 mi SSE 4.6 mph - N/A   Scattered Clouds
5:15 AM 39.2 °F 34.2 °F 35.6 °F 87% 29.93 in 10.0 mi SE 6.9 mph - N/A   Clear
5:35 AM 41.0 °F 36.4 °F 33.8 °F 76% 29.93 in 10.0 mi SE 6.9 mph - N/A   Partly Cloudy
5:55 AM 41.0 °F 35.8 °F 33.8 °F 76% 29.93 in 10.0 mi SSE 8.1 mph - N/A   Partly Cloudy
6:15 AM 41.0 °F 37.1 °F 33.8 °F 76% 29.93 in 10.0 mi SSE 5.8 mph - N/A   Clear
6:55 AM 42.8 °F 38.6 °F 35.6 °F 76% 29.93 in 10.0 mi SSE 6.9 mph - N/A   Overcast
7:15 AM 42.8 °F 38.0 °F 35.6 °F 76% 29.92 in 10.0 mi SSE 8.1 mph - N/A   Overcast
7:35 AM 42.8 °F 38.6 °F 35.6 °F 76% 29.92 in 10.0 mi South 6.9 mph - N/A   Overcast
7:55 AM 44.6 °F 39.7 °F 35.6 °F 71% 29.92 in 10.0 mi SSE 9.2 mph - N/A   Overcast
8:15 AM 44.6 °F 40.7 °F 35.6 °F 71% 29.92 in 10.0 mi SSE 6.9 mph - N/A   Overcast
8:35 AM 44.6 °F 38.8 °F 35.6 °F 71% 29.91 in 10.0 mi South 11.5 mph 16.1 mph N/A   Overcast
8:55 AM 44.6 °F 38.8 °F 35.6 °F 71% 29.92 in 10.0 mi South 11.5 mph 16.1 mph N/A   Overcast
9:15 AM 46.4 °F 42.4 °F 35.6 °F 66% 29.91 in 10.0 mi SSE 8.1 mph - N/A   Overcast
9:35 AM 48.2 °F - 35.6 °F 62% 29.91 in 10.0 mi South 9.2 mph 18.4 mph N/A   Mostly Cloudy
10:35 AM 50.0 °F - 37.4 °F 62% 29.89 in 10.0 mi SSE 11.5 mph 17.3 mph N/A   Partly Cloudy
10:55 AM 50.0 °F - 37.4 °F 62% 29.89 in 10.0 mi SSE 6.9 mph - N/A   Mostly Cloudy
11:15 AM 48.2 °F - 39.2 °F 71% 29.88 in 8.0 mi South 8.1 mph - N/A   Mostly Cloudy
11:35 AM 48.2 °F - 39.2 °F 71% 29.87 in 9.0 mi South 9.2 mph - N/A   Mostly Cloudy
12:15 PM 50.0 °F - 37.4 °F 62% 29.84 in 10.0 mi South 12.7 mph 17.3 mph N/A   Overcast
12:35 PM 53.6 °F - 35.6 °F 51% 29.82 in 10.0 mi SSE 12.7 mph 18.4 mph N/A   Overcast
12:55 PM 55.4 °F - 35.6 °F 47% 29.81 in 10.0 mi SSE 12.7 mph 20.7 mph N/A   Overcast
1:15 PM 55.4 °F - 35.6 °F 47% 29.81 in 10.0 mi SSE 13.8 mph 18.4 mph N/A   Overcast
1:35 PM 55.4 °F - 35.6 °F 47% 29.80 in 10.0 mi SSE 12.7 mph - N/A   Overcast
1:55 PM 55.4 °F - 35.6 °F 47% 29.79 in 10.0 mi SE 13.8 mph 21.9 mph N/A   Overcast
2:15 PM 55.4 °F - 35.6 °F 47% 29.78 in 10.0 mi SE 12.7 mph - N/A   Overcast
2:35 PM 55.4 °F - 39.2 °F 54% 29.78 in 10.0 mi SE 13.8 mph 21.9 mph N/A   Mostly Cloudy
2:55 PM 57.2 °F - 39.2 °F 51% 29.77 in 10.0 mi SE 11.5 mph 19.6 mph N/A   Mostly Cloudy
3:15 PM 57.2 °F - 39.2 °F 51% 29.76 in 10.0 mi SE 16.1 mph 21.9 mph N/A   Overcast
3:35 PM 57.2 °F - 39.2 °F 51% 29.76 in 10.0 mi SE 18.4 mph 27.6 mph N/A   Overcast
3:55 PM 57.2 °F - 41.0 °F 55% 29.75 in 10.0 mi SE 17.3 mph 28.8 mph N/A   Overcast
4:15 PM 57.2 °F - 41.0 °F 55% 29.75 in 10.0 mi SE 16.1 mph 24.2 mph N/A   Overcast
4:35 PM 55.4 °F - 41.0 °F 58% 29.75 in 10.0 mi SE 12.7 mph 23.0 mph N/A   Overcast
4:55 PM 55.4 °F - 41.0 °F 58% 29.75 in 10.0 mi SE 12.7 mph 21.9 mph N/A   Overcast
5:15 PM 53.6 °F - 44.6 °F 72% 29.76 in 10.0 mi SSW 10.4 mph - N/A   Overcast
5:35 PM 51.8 °F - 46.4 °F 82% 29.78 in 9.0 mi SW 15.0 mph 26.5 mph N/A   Overcast
5:55 PM 50.0 °F - 48.2 °F 94% 29.78 in 7.0 mi SSW 6.9 mph - 0.02 in   Overcast
6:15 PM 50.0 °F - 48.2 °F 94% 29.77 in 9.0 mi SSE 4.6 mph - 0.01 in   Overcast
6:35 PM 48.2 °F - 48.2 °F 100% 29.76 in 10.0 mi SE 4.6 mph - 0.01 in   Overcast
6:55 PM 50.0 °F - 48.2 °F 94% 29.75 in 9.0 mi ESE 6.9 mph - 0.01 in   Overcast
7:15 PM 50.0 °F - 48.2 °F 94% 29.75 in 10.0 mi SE 5.8 mph - N/A   Overcast
7:55 PM 50.0 °F - 46.4 °F 87% 29.74 in 10.0 mi ESE 6.9 mph - N/A   Clear
8:15 PM 48.2 °F - 46.4 °F 93% 29.73 in 10.0 mi SE 8.1 mph - N/A   Clear
8:35 PM 46.4 °F 42.9 °F 46.4 °F 100% 29.73 in 10.0 mi SE 6.9 mph - N/A   Clear
8:55 PM 48.2 °F - 46.4 °F 93% 29.73 in 10.0 mi SE 6.9 mph - N/A   Clear
9:15 PM 48.2 °F - 46.4 °F 93% 29.73 in 10.0 mi SE 8.1 mph - N/A   Partly Cloudy
9:35 PM 48.2 °F - 44.6 °F 87% 29.73 in 10.0 mi SE 4.6 mph - N/A   Mostly Cloudy
9:55 PM 48.2 °F - 44.6 °F 87% 29.73 in 10.0 mi South 5.8 mph - N/A   Scattered Clouds
10:15 PM 50.0 °F - 44.6 °F 82% 29.72 in 10.0 mi SE 12.7 mph 18.4 mph N/A   Scattered Clouds
10:35 PM 50.0 °F - 44.6 °F 82% 29.73 in 10.0 mi SE 11.5 mph - N/A   Mostly Cloudy
10:55 PM 50.0 °F - 44.6 °F 82% 29.74 in 10.0 mi SSE 10.4 mph - N/A   Mostly Cloudy
11:15 PM 50.0 °F - 44.6 °F 82% 29.74 in 10.0 mi SSE 4.6 mph - N/A   Mostly Cloudy
11:35 PM 50.0 °F - 44.6 °F 82% 29.74 in 10.0 mi SSE 10.4 mph - N/A   Overcast
11:55 PM 51.8 °F - 42.8 °F 71% 29.74 in 10.0 mi SSE 6.9 mph - N/A   Overcast